When you browse on this site, cookies collect data to enhance your experience and personalize the content and advertising you see.
Visit our Privacy Policy to learn more. By continuing to use the site, you agree to this use of cookies and data.
  • In Austria
  • List of Countries
  • For 7 days
  • Water Temperature
  • Satellite Maps
  • Weather Map
  • News
  • Weather Widgets
  • user-avatar
    Login

    Hourly Weather Ilincy

    Today, 21 April, Sunday

    Time Temperature Precipitation Wind Pressure Humidity
    00:00 +8°C° 0 mm 2 mps 746 mmHg 62%
    01:00 +7°C° 0 mm 2 mps 746 mmHg 64%
    02:00 +7°C° 0 mm 2 mps 746 mmHg 66%
    03:00 +7°C° 0 mm 2 mps 746 mmHg 70%
    04:00 +6°C° 0 mm 2 mps 746 mmHg 74%
    05:00 +7°C° 0 mm 1 mps 745 mmHg 77%
    06:00 +7°C° 0 mm 2 mps 746 mmHg 74%
    07:00 +8°C° 0 mm 2 mps 746 mmHg 70%
    08:00 +9°C° 0 mm 2 mps 746 mmHg 66%
    09:00 +11°C° 0 mm 3 mps 746 mmHg 60%
    10:00 +12°C° 0 mm 3 mps 746 mmHg 54%
    11:00 +13°C° 0 mm 4 mps 746 mmHg 48%
    12:00 +13°C° 0.1 mm 4 mps 745 mmHg 49%
    13:00 +13°C° 0.1 mm 4 mps 745 mmHg 49%
    14:00 +13°C° 0.1 mm 5 mps 745 mmHg 49%
    15:00 +13°C° 0.1 mm 5 mps 745 mmHg 50%
    16:00 +13°C° 0.1 mm 5 mps 745 mmHg 51%
    17:00 +13°C° 0.1 mm 5 mps 745 mmHg 53%
    18:00 +11°C° 0 mm 4 mps 745 mmHg 57%
    19:00 +10°C° 0 mm 3 mps 745 mmHg 62%
    20:00 +9°C° 0 mm 3 mps 745 mmHg 66%
    21:00 +8°C° 0 mm 3 mps 745 mmHg 67%
    22:00 +8°C° 0 mm 3 mps 745 mmHg 68%
    23:00 +7°C° 0 mm 3 mps 746 mmHg 68%

    Tomorrow, 22 April, Monday

    Time Temperature Precipitation Wind Pressure Humidity
    00:00 +7°C° 0 mm 3 mps 746 mmHg 68%
    01:00 +7°C° 0 mm 3 mps 746 mmHg 69%
    02:00 +5°C° 0 mm 3 mps 746 mmHg 69%
    03:00 +5°C° 0 mm 3 mps 746 mmHg 70%
    04:00 +4°C° 0 mm 3 mps 746 mmHg 71%
    05:00 +5°C° 0 mm 2 mps 746 mmHg 72%
    06:00 +7°C° 0 mm 3 mps 747 mmHg 66%
    07:00 +7°C° 0 mm 4 mps 747 mmHg 60%
    08:00 +10°C° 0 mm 4 mps 748 mmHg 53%
    09:00 +10°C° 0 mm 5 mps 748 mmHg 49%
    10:00 +12°C° 0 mm 5 mps 748 mmHg 44%
    11:00 +13°C° 0 mm 6 mps 749 mmHg 39%
    12:00 +13°C° 0 mm 5 mps 749 mmHg 40%
    13:00 +13°C° 0 mm 5 mps 749 mmHg 40%
    14:00 +13°C° 0 mm 5 mps 749 mmHg 41%
    15:00 +13°C° 0 mm 5 mps 749 mmHg 43%
    16:00 +13°C° 0 mm 4 mps 749 mmHg 45%
    17:00 +13°C° 0 mm 4 mps 749 mmHg 46%
    18:00 +11°C° 0 mm 4 mps 749 mmHg 52%
    19:00 +10°C° 0 mm 3 mps 749 mmHg 57%
    20:00 +8°C° 0 mm 3 mps 749 mmHg 62%
    21:00 +8°C° 0 mm 3 mps 749 mmHg 63%
    22:00 +7°C° 0 mm 3 mps 749 mmHg 64%
    23:00 +7°C° 0 mm 3 mps 750 mmHg 65%

    Day after tomorrow, 23 April, Tuesday

    Time Temperature Precipitation Wind Pressure Humidity
    00:00 +7°C° 0 mm 3 mps 750 mmHg 66%
    01:00 +7°C° 0 mm 3 mps 750 mmHg 66%
    02:00 +5°C° 0 mm 3 mps 750 mmHg 66%
    03:00 +5°C° 0 mm 3 mps 750 mmHg 67%
    04:00 +5°C° 0 mm 3 mps 750 mmHg 67%
    05:00 +5°C° 0 mm 3 mps 750 mmHg 68%
    06:00 +7°C° 0 mm 3 mps 750 mmHg 63%
    07:00 +8°C° 0 mm 4 mps 751 mmHg 59%
    08:00 +11°C° 0 mm 4 mps 751 mmHg 55%
    09:00 +12°C° 0 mm 5 mps 751 mmHg 50%
    10:00 +13°C° 0 mm 5 mps 751 mmHg 45%
    11:00 +14°C° 0 mm 5 mps 751 mmHg 41%
    12:00 +15°C° 0 mm 5 mps 751 mmHg 41%
    13:00 +15°C° 0 mm 6 mps 751 mmHg 41%
    14:00 +15°C° 0 mm 6 mps 751 mmHg 41%
    15:00 +15°C° 0 mm 5 mps 750 mmHg 42%
    16:00 +15°C° 0 mm 5 mps 750 mmHg 43%
    17:00 +15°C° 0 mm 5 mps 750 mmHg 45%
    18:00 +13°C° 0 mm 4 mps 750 mmHg 49%
    19:00 +12°C° 0 mm 4 mps 750 mmHg 53%
    20:00 +11°C° 0 mm 4 mps 750 mmHg 57%
    21:00 +10°C° 0 mm 4 mps 750 mmHg 60%
    22:00 +8°C° 0 mm 4 mps 750 mmHg 62%
    23:00 +7°C° 0 mm 4 mps 751 mmHg 64%

    24 April, Wednesday

    Time Temperature Precipitation Wind Pressure Humidity
    00:00 +8°C° 0 mm 3 mps 751 mmHg 66%
    01:00 +7°C° 0 mm 3 mps 751 mmHg 68%
    02:00 +7°C° 0 mm 3 mps 751 mmHg 70%
    03:00 +5°C° 0 mm 3 mps 751 mmHg 71%
    04:00 +5°C° 0 mm 3 mps 751 mmHg 71%
    05:00 +5°C° 0 mm 3 mps 751 mmHg 71%
    06:00 +7°C° 0 mm 4 mps 751 mmHg 65%
    07:00 +10°C° 0 mm 4 mps 751 mmHg 60%
    08:00 +12°C° 0 mm 5 mps 751 mmHg 54%
    09:00 +13°C° 0 mm 5 mps 752 mmHg 51%
    10:00 +14°C° 0 mm 6 mps 752 mmHg 47%
    11:00 +15°C° 0 mm 6 mps 752 mmHg 44%
    12:00 +16°C° 0 mm 6 mps 751 mmHg 44%
    13:00 +16°C° 0 mm 6 mps 751 mmHg 43%
    14:00 +17°C° 0 mm 6 mps 751 mmHg 43%
    15:00 +16°C° 0 mm 5 mps 751 mmHg 44%
    16:00 +16°C° 0 mm 5 mps 750 mmHg 45%
    17:00 +16°C° 0 mm 5 mps 750 mmHg 46%
    18:00 +14°C° 0 mm 4 mps 750 mmHg 52%
    19:00 +13°C° 0 mm 4 mps 750 mmHg 57%
    20:00 +11°C° 0 mm 3 mps 750 mmHg 62%
    21:00 +10°C° 0 mm 3 mps 750 mmHg 61%
    22:00 +10°C° 0 mm 3 mps 750 mmHg 61%
    23:00 +9°C° 0 mm 3 mps 751 mmHg 61%

    25 April, Thursday

    Time Temperature Precipitation Wind Pressure Humidity
    00:00 +9°C° 0 mm 3 mps 751 mmHg 61%
    01:00 +8°C° 0 mm 3 mps 751 mmHg 61%
    02:00 +7°C° 0 mm 3 mps 751 mmHg 61%
    03:00 +7°C° 0 mm 3 mps 751 mmHg 63%
    04:00 +7°C° 0 mm 3 mps 751 mmHg 64%
    05:00 +5°C° 0 mm 3 mps 751 mmHg 66%
    06:00 +7°C° 0 mm 4 mps 751 mmHg 62%
    07:00 +10°C° 0 mm 4 mps 751 mmHg 58%
    08:00 +10°C° 0 mm 5 mps 751 mmHg 54%
    09:00 +13°C° 0 mm 5 mps 751 mmHg 50%
    10:00 +15°C° 0 mm 5 mps 751 mmHg 45%
    11:00 +16°C° 0 mm 6 mps 751 mmHg 41%
    12:00 +17°C° 0 mm 6 mps 750 mmHg 41%
    13:00 +17°C° 0 mm 6 mps 750 mmHg 41%
    14:00 +19°C° 0 mm 6 mps 750 mmHg 41%
    15:00 +19°C° 0 mm 5 mps 749 mmHg 43%
    16:00 +17°C° 0 mm 5 mps 749 mmHg 45%
    17:00 +17°C° 0 mm 5 mps 749 mmHg 47%
    18:00 +17°C° 0 mm 4 mps 748 mmHg 52%
    19:00 +14°C° 0 mm 4 mps 748 mmHg 56%
    20:00 +12°C° 0 mm 3 mps 748 mmHg 61%
    21:00 +12°C° 0 mm 3 mps 748 mmHg 63%
    22:00 +11°C° 0 mm 3 mps 748 mmHg 64%
    23:00 +10°C° 0 mm 3 mps 748 mmHg 66%

    26 April, Friday

    Time Temperature Precipitation Wind Pressure Humidity
    00:00 +10°C° 0 mm 3 mps 747 mmHg 67%
    01:00 +9°C° 0 mm 3 mps 747 mmHg 67%
    02:00 +8°C° 0 mm 3 mps 747 mmHg 68%
    03:00 +8°C° 0 mm 3 mps 747 mmHg 68%
    04:00 +7°C° 0 mm 3 mps 747 mmHg 68%
    05:00 +7°C° 0 mm 3 mps 746 mmHg 68%
    06:00 +8°C° 0 mm 4 mps 746 mmHg 61%
    07:00 +10°C° 0 mm 5 mps 746 mmHg 55%
    08:00 +13°C° 0 mm 6 mps 746 mmHg 49%
    09:00 +14°C° 0 mm 6 mps 746 mmHg 48%
    10:00 +16°C° 0 mm 7 mps 746 mmHg 47%
    11:00 +18°C° 0 mm 7 mps 746 mmHg 46%
    12:00 +18°C° 0 mm 7 mps 746 mmHg 46%
    13:00 +20°C° 0 mm 7 mps 745 mmHg 45%
    14:00 +21°C° 0 mm 6 mps 745 mmHg 45%
    15:00 +20°C° 0 mm 6 mps 744 mmHg 47%
    16:00 +20°C° 0 mm 6 mps 744 mmHg 49%
    17:00 +20°C° 0 mm 5 mps 744 mmHg 50%
    18:00 +17°C° 0 mm 5 mps 743 mmHg 57%
    19:00 +15°C° 0 mm 4 mps 743 mmHg 63%
    20:00 +14°C° 0 mm 3 mps 743 mmHg 69%
    21:00 +13°C° 0 mm 3 mps 743 mmHg 70%
    22:00 +13°C° 0 mm 4 mps 743 mmHg 71%
    23:00 +12°C° 0 mm 4 mps 743 mmHg 72%
    Show more